Regional Weather Roundup
Issued by NWS Cleveland, OH

Home | Current Version | Previous Version | Graphics & Text | Print | Product List | Glossary On
Versions: 1 2 3 4 5 6 7 8 9 10 11 12 13 14 15 16 17 18 19 20 21 22 23 24 25 26 27 28 29 30 31 32 33 34 35 36 37 38 39 40 41 42 43 44 45 46 47 48 49 50
000
ASUS41 KCLE 300612
RWRCLE
OHIO REGIONAL WEATHER ROUNDUP
NATIONAL WEATHER SERVICE WILMINGTON, OH
200 AM EDT SUN APR 30 2017

NOTE: "FAIR" INDICATES FEW OR NO CLOUDS BELOW 12,000 FEET WITH NO
SIGNIFICANT WEATHER AND/OR OBSTRUCTIONS TO VISIBILITY.

OHZ001>008-015>018-024>027-034-035-043-044-300700-
   NORTHWEST OHIO

CITY           SKY/WX    TMP DP  RH WIND       PRES   REMARKS
DEFIANCE       LGT RAIN  41  40  96 NE10      30.06F FOG
FINDLAY        LGT RAIN  47  42  83 W10G22    30.11R
TOLEDO EXPRESS LGT RAIN  44  42  93 N8        30.10R
TOLEDO EXEC    MOCLDY    48  42  80 E14G24    30.04F
LIMA           LGT RAIN  46  46 100 N10       30.05F
$$

OHZ009>014-019>023-028>033-038-089-300700-
   NORTHEAST OHIO

CITY           SKY/WX    TMP DP  RH WIND       PRES   REMARKS
CLE-HOPKINS    CLOUDY    50  41  71 NE6       30.09F
CLE-LAKEFRONT  FAIR      49  42  77 NE6       30.07F
CUY CO. ARPT   NOT AVBL
LORAIN-ELYRIA  MOCLDY    47  41  80 E8        30.06F
ASHTABULA      MOCLDY    49  43  80 NE9       30.10F
AKRON-CANTON   CLOUDY    51  47  86 E10       30.09R FOG
WOOSTER        CLOUDY    49  47  93 E12       30.07F
MANSFIELD      CLOUDY    50  49  96 E12       30.03F
YOUNGSTOWN     MOCLDY    49  47  93 E7        30.09F
$$

OHZ042-051>053-060>062-070>072-077>081-300700-
  SOUTHWEST OHIO

CITY           SKY/WX    TMP DP  RH WIND       PRES   REMARKS
CINC-COVINGTON MOCLDY    73  65  75 W9        29.95R
CINC-LUNKEN    FAIR      69  68  96 W8        29.93F
HAMILTON       TSTM      66  66 100 VRB5      29.97R FOG
DAYTON         CLOUDY    53  53 100 N20G28    30.01R
WRIGHT-PAT AFB CLOUDY    59  59 100 NE7       29.97F FOG
DAYTON GENERAL FAIR      61  60  97 E6        29.94F THUNDER FOG
WILMINGTON     LGT RAIN  60  60 100 VRB5      29.97F FOG
$$

OHZ036-037-039>041-045>050-054>059-063>069-073>076-082>088-300700-
  CENTRAL AND SOUTHEAST OHIO

CITY           SKY/WX    TMP DP  RH WIND       PRES   REMARKS
COLUMBUS       CLOUDY    57  56  96 E12       30.00F
OSU AIRPORT    CLOUDY    55  55 100 E8        29.99F
BOLTON FIELD   CLOUDY    57  57  98 E15       29.99F FOG
RICKENBACK AFB CLOUDY    56  56 100 E9        29.99F FOG
NEWARK         CLOUDY    56  55  97 NE7       30.02F FOG
MARION         FAIR      52  49  89 E7        30.00F
LANCASTER      CLOUDY    61  59  93 E6        30.01F FOG
ZANESVILLE     CLOUDY    60  57  89 NE9       30.02F FOG
NEW PHILLY     CLOUDY    56  55  97 VRB5      30.07F
$$



USA.gov is the U.S. government's official web portal to all federal, state and local government web resources and services.